Location: Unspecified
(0.0000°N, 0.0000°E)
Time: 08:34:00
(UTC+00:00)

Explorer 11/Cluster Stage 4 - Pass Details

Date: 20 July 2020
Orbit: 467 x 1259 km, 28.8° (Epoch: 03 August)

Event Time Altitude Azimuth Distance (km) Brightness Sun altitude
Rises 13:26:24 0° 327° (NNW) 3,296 10.2 61.7°
Reaches altitude 10° 13:29:22 10° 344° (NNW) 2,513 9.7 61.2°
Maximum altitude 13:33:54 21° 32° (NNE) 2,034 9.1 60.4°
Drops below altitude 10° 13:39:06 10° 78° (ENE) 2,933 9.4 59.4°
Sets 13:42:52 0° 92° (E) 4,016 10.0 58.8°
